EW3904 Weather Reports


time (UTC)temp
F
wind
direction
speed
knots
gust
knots
rain 1hr
in
rain 24hr
in
rain mn
in
humidity
%
barometer
mb
20260504203221 77 136 1.7 5.2 0.00 0.00 0.00 34 1014.5
20260504201224 76 240 1.7 5.2 0.00 0.00 0.00 35 1014.6
20260504200221 77 174 3.5 6.1 0.00 0.00 0.00 34 1014.7
20260504195221 76 142 2.6 7.8 0.00 0.00 0.00 33 1014.9
20260504194221 76 202 4.3 6.1 0.00 0.00 0.00 35 1015.2
20260504193221 76 182 0.0 4.3 0.00 0.00 0.00 35 1015.3
20260504192221 76 209 3.5 4.3 0.00 0.00 0.00 38 1015.4
20260504191221 75 158 2.6 5.2 0.00 0.00 0.00 35 1015.4
20260504190220 75 213 1.7 2.6 0.00 0.00 0.00 36 1015.5
20260504185220 75 268 3.5 7.0 0.00 0.00 0.00 35 1015.7
20260504183220 74 89 1.7 4.3 0.00 0.00 0.00 37 1016.0
20260504182220 74 226 3.5 5.2 0.00 0.00 0.00 36 1016.0
20260504181220 75 180 3.5 7.8 0.00 0.00 0.00 40 1016.3
20260504175220 74 146 2.6 6.1 0.00 0.00 0.00 38 1016.4
20260504173219 73 256 2.6 5.2 0.00 0.00 0.00 42 1016.7
20260504172219 73 273 3.5 8.7 0.00 0.00 0.00 42 1016.7
20260504170219 72 5 0.9 3.5 0.00 0.00 0.00 39 1016.7
20260504160219 70 134 0.0 3.5 0.00 0.00 0.00 45 1017.5
20260504150218 68 285 3.5 6.1 0.00 0.00 0.00 48 1018.1
20260504141218 65 232 1.7 7.0 0.00 0.00 0.00 50 1018.1
20260504140218 65 259 5.2 6.1 0.00 0.00 0.00 57 1018.1
20260504130217 59 248 1.7 2.6 0.00 0.00 0.00 65 1017.8
20260504120217 49 112 0.0 0.0 0.00 0.00 0.00 89 1017.6
20260504110217 43 293 0.0 0.0 0.00 0.00 0.00 93 1017.1
20260504100216 43 293 0.0 0.0 0.00 0.00 0.00 92 1017.4
20260504070215 46 293 0.0 0.0 0.00 0.00 0.00 89 1017.6
20260504060215 47 293 0.0 0.0 0.00 0.00 0.00 87 1017.8
20260504050214 49 293 0.0 1.7 0.00 0.00 0.00 83 1018.3
20260504045214 49 293 0.0 0.0 0.00 0.00 0.00 82 1018.4
20260504044214 49 293 0.0 0.0 0.00 0.00 0.00 83 1018.2
20260504043214 50 293 0.0 0.0 0.00 0.00 0.00 82 1018.2
20260504042214 50 293 0.0 1.7 0.00 0.00 0.00 82 1018.2
20260504041214 50 293 0.0 0.0 0.00 0.00 0.00 83 1018.3
20260504035214 51 293 0.0 0.0 0.00 0.00 0.00 80 1018.4
20260504034214 52 293 0.0 0.0 0.00 0.00 0.00 79 1018.4
20260504032214 52 293 0.0 0.0 0.00 0.00 0.00 78 1018.2
20260504031214 52 293 0.0 0.0 0.00 0.00 0.00 78 1018.1
20260504030213 52 293 0.0 0.0 0.00 0.00 0.00 78 1018.2
20260504025214 53 293 0.0 0.0 0.00 0.00 0.00 79 1018.1
20260504024213 54 293 0.0 1.7 0.00 0.00 0.00 75 1018.0
20260504023213 53 299 0.0 1.7 0.00 0.00 0.00 76 1018.0
20260504022213 54 299 0.0 0.9 0.00 0.00 0.00 74 1017.7
20260504021213 54 240 0.9 0.9 0.00 0.00 0.00 74 1017.6
20260504013213 57 254 0.0 0.9 0.00 0.00 0.00 67 1017.3
20260504012213 57 254 0.0 0.0 0.00 0.00 0.00 66 1017.0
20260504011213 58 254 0.0 1.7 0.00 0.00 0.00 65 1016.9
20260504010212 59 254 0.0 1.7 0.00 0.00 0.00 63 1016.9
20260504004212 61 254 0.9 1.7 0.00 0.00 0.00 58 1016.7
20260504003212 62 254 0.0 0.9 0.00 0.00 0.00 57 1016.6
20260504002213 63 254 0.9 1.7 0.00 0.00 0.00 52 1016.6
20260504001212 65 248 0.0 0.9 0.00 0.00 0.00 50 1016.6
20260504000212 67 248 0.9 1.7 0.00 0.00 0.00 45 1016.5
20260503235213 67 263 0.9 4.3 0.00 0.00 0.00 42 1016.4
20260503234213 68 280 1.7 4.3 0.00 0.00 0.00 36 1016.5
20260503233212 69 304 3.5 3.5 0.00 0.00 0.00 36 1016.5
20260503232212 70 281 3.5 4.3 0.00 0.00 0.00 33 1016.4
20260503231212 70 284 4.3 6.1 0.00 0.00 0.00 35 1016.4
20260503230211 70 275 6.1 7.8 0.00 0.00 0.00 34 1016.5
20260503225212 70 256 5.2 6.1 0.00 0.00 0.00 33 1016.4
20260503224212 70 302 3.5 7.0 0.00 0.00 0.00 33 1016.4
20260503223211 71 304 3.5 7.0 0.00 0.00 0.00 35 1016.5
20260503222212 71 260 6.1 8.7 0.00 0.00 0.00 33 1016.4
20260503221212 71 248 5.2 7.0 0.00 0.00 0.00 33 1016.6
20260503220212 71 250 2.6 7.0 0.00 0.00 0.00 34 1016.9
20260503215212 71 269 10.4 10.4 0.00 0.00 0.00 35 1016.8
20260503213211 71 250 3.5 7.8 0.00 0.00 0.00 32 1016.8
20260503212212 71 319 2.6 7.0 0.00 0.00 0.00 33 1016.7
20260503211211 71 265 7.0 7.8 0.00 0.00 0.00 32 1016.8
20260503210211 71 247 6.1 7.0 0.00 0.00 0.00 32 1016.8
20260503205211 70 273 2.6 7.0 0.00 0.00 0.00 32 1016.8